• In Czech Republic
  • List of Countries
  • For 7 days
  • Water Temperature
  • Satellite Maps
  • Weather Map
  • Weather Widgets
  • user-avatar
    Login

    Hourly Weather Djelfa

    Today, 24 November, Friday

    Time Temperature Precipitation Wind Pressure Humidity
    00:00 +7°C° 0 mm 1 mps 666 mmHg 39%
    01:00 +7°C° 0 mm 1 mps 666 mmHg 40%
    02:00 +7°C° 0 mm 1 mps 665 mmHg 41%
    03:00 +6°C° 0 mm 1 mps 665 mmHg 41%
    04:00 +6°C° 0 mm 1 mps 665 mmHg 42%
    05:00 +6°C° 0 mm 1 mps 665 mmHg 42%
    06:00 +5°C° 0 mm 1 mps 665 mmHg 42%
    07:00 +8°C° 0 mm 1 mps 666 mmHg 37%
    08:00 +10°C° 0 mm 1 mps 667 mmHg 31%
    09:00 +12°C° 0 mm 1 mps 668 mmHg 26%
    10:00 +13°C° 0 mm 1 mps 668 mmHg 23%
    11:00 +14°C° 0 mm 1 mps 668 mmHg 20%
    12:00 +14°C° 0 mm 0 mps 668 mmHg 17%
    13:00 +15°C° 0 mm 0 mps 668 mmHg 16%
    14:00 +15°C° 0 mm 0 mps 668 mmHg 16%
    15:00 +15°C° 0 mm 0 mps 668 mmHg 15%
    16:00 +13°C° 0 mm 0 mps 667 mmHg 18%
    17:00 +12°C° 0 mm 0 mps 667 mmHg 21%
    18:00 +10°C° 0 mm 0 mps 667 mmHg 24%
    19:00 +10°C° 0 mm 1 mps 667 mmHg 25%
    20:00 +10°C° 0 mm 1 mps 667 mmHg 25%
    21:00 +10°C° 0 mm 1 mps 667 mmHg 26%
    22:00 +9°C° 0 mm 1 mps 667 mmHg 26%
    23:00 +9°C° 0 mm 1 mps 667 mmHg 26%

    Tomorrow, 25 November, Saturday

    Time Temperature Precipitation Wind Pressure Humidity
    00:00 +8°C° 0 mm 2 mps 667 mmHg 26%
    01:00 +8°C° 0 mm 2 mps 667 mmHg 26%
    02:00 +8°C° 0 mm 2 mps 666 mmHg 26%
    03:00 +7°C° 0 mm 2 mps 666 mmHg 26%
    04:00 +7°C° 0 mm 2 mps 666 mmHg 27%
    05:00 +7°C° 0 mm 2 mps 666 mmHg 27%
    06:00 +6°C° 0 mm 2 mps 666 mmHg 28%
    07:00 +8°C° 0 mm 2 mps 667 mmHg 24%
    08:00 +10°C° 0 mm 2 mps 668 mmHg 21%
    09:00 +13°C° 0 mm 2 mps 669 mmHg 18%
    10:00 +14°C° 0 mm 3 mps 669 mmHg 16%
    11:00 +16°C° 0 mm 3 mps 668 mmHg 14%
    12:00 +17°C° 0 mm 3 mps 668 mmHg 12%
    13:00 +17°C° 0 mm 3 mps 668 mmHg 12%
    14:00 +18°C° 0 mm 3 mps 668 mmHg 11%
    15:00 +18°C° 0 mm 3 mps 668 mmHg 11%
    16:00 +16°C° 0 mm 3 mps 667 mmHg 13%
    17:00 +14°C° 0 mm 2 mps 667 mmHg 16%
    18:00 +12°C° 0 mm 2 mps 667 mmHg 18%
    19:00 +12°C° 0 mm 1 mps 667 mmHg 19%
    20:00 +11°C° 0 mm 1 mps 667 mmHg 20%
    21:00 +11°C° 0 mm 1 mps 667 mmHg 21%
    22:00 +10°C° 0 mm 1 mps 667 mmHg 22%
    23:00 +10°C° 0 mm 1 mps 667 mmHg 23%

    Day after tomorrow, 26 November, Sunday

    Time Temperature Precipitation Wind Pressure Humidity
    00:00 +9°C° 0 mm 1 mps 667 mmHg 24%
    01:00 +9°C° 0 mm 1 mps 666 mmHg 25%
    02:00 +9°C° 0 mm 1 mps 666 mmHg 25%
    03:00 +8°C° 0 mm 1 mps 666 mmHg 26%
    04:00 +8°C° 0 mm 1 mps 666 mmHg 27%
    05:00 +8°C° 0 mm 1 mps 666 mmHg 28%
    06:00 +8°C° 0 mm 1 mps 666 mmHg 28%
    07:00 +10°C° 0 mm 1 mps 667 mmHg 26%
    08:00 +12°C° 0 mm 2 mps 668 mmHg 23%
    09:00 +14°C° 0 mm 2 mps 669 mmHg 20%
    10:00 +15°C° 0 mm 2 mps 669 mmHg 19%
    11:00 +16°C° 0 mm 2 mps 669 mmHg 19%
    12:00 +17°C° 0 mm 2 mps 669 mmHg 18%
    13:00 +17°C° 0 mm 3 mps 669 mmHg 18%
    14:00 +17°C° 0 mm 3 mps 669 mmHg 19%
    15:00 +17°C° 0 mm 3 mps 669 mmHg 19%
    16:00 +14°C° 0 mm 3 mps 668 mmHg 22%
    17:00 +14°C° 0 mm 2 mps 668 mmHg 24%
    18:00 +12°C° 0 mm 2 mps 668 mmHg 27%
    19:00 +12°C° 0 mm 2 mps 668 mmHg 29%
    20:00 +11°C° 0 mm 1 mps 668 mmHg 32%
    21:00 +11°C° 0 mm 1 mps 669 mmHg 34%
    22:00 +10°C° 0 mm 1 mps 668 mmHg 39%
    23:00 +9°C° 0 mm 1 mps 668 mmHg 43%

    27 November, Monday

    Time Temperature Precipitation Wind Pressure Humidity
    00:00 +9°C° 0 mm 1 mps 668 mmHg 48%
    01:00 +8°C° 0 mm 1 mps 668 mmHg 51%
    02:00 +7°C° 0 mm 0 mps 668 mmHg 55%
    03:00 +6°C° 0 mm 0 mps 667 mmHg 59%
    04:00 +6°C° 0 mm 0 mps 667 mmHg 60%
    05:00 +6°C° 0 mm 0 mps 667 mmHg 60%
    06:00 +6°C° 0 mm 0 mps 667 mmHg 61%
    07:00 +7°C° 0 mm 0 mps 668 mmHg 55%
    08:00 +10°C° 0 mm 1 mps 669 mmHg 49%
    09:00 +12°C° 0 mm 1 mps 670 mmHg 42%
    10:00 +13°C° 0 mm 1 mps 669 mmHg 39%
    11:00 +14°C° 0 mm 2 mps 669 mmHg 35%
    12:00 +15°C° 0 mm 2 mps 669 mmHg 31%
    13:00 +15°C° 0 mm 2 mps 669 mmHg 30%
    14:00 +16°C° 0 mm 3 mps 668 mmHg 29%
    15:00 +16°C° 0 mm 3 mps 668 mmHg 28%
    16:00 +15°C° 0 mm 2 mps 668 mmHg 33%
    17:00 +14°C° 0 mm 2 mps 668 mmHg 38%
    18:00 +12°C° 0 mm 2 mps 667 mmHg 43%
    19:00 +12°C° 0 mm 2 mps 668 mmHg 45%
    20:00 +12°C° 0 mm 1 mps 668 mmHg 46%
    21:00 +11°C° 0 mm 1 mps 668 mmHg 48%
    22:00 +11°C° 0 mm 1 mps 668 mmHg 49%
    23:00 +10°C° 0 mm 1 mps 667 mmHg 50%

    28 November, Tuesday

    Time Temperature Precipitation Wind Pressure Humidity
    00:00 +10°C° 0 mm 1 mps 667 mmHg 51%
    01:00 +10°C° 0 mm 1 mps 667 mmHg 51%
    02:00 +9°C° 0 mm 1 mps 666 mmHg 51%
    03:00 +9°C° 0 mm 1 mps 666 mmHg 51%
    04:00 +9°C° 0 mm 1 mps 666 mmHg 51%
    05:00 +9°C° 0 mm 1 mps 666 mmHg 51%
    06:00 +9°C° 0 mm 1 mps 666 mmHg 51%
    07:00 +9°C° 0 mm 0 mps 666 mmHg 49%
    08:00 +10°C° 0 mm 0 mps 667 mmHg 46%
    09:00 +11°C° 0 mm 0 mps 667 mmHg 44%
    10:00 +13°C° 0 mm 1 mps 667 mmHg 40%
    11:00 +14°C° 0 mm 1 mps 667 mmHg 37%
    12:00 +15°C° 0 mm 2 mps 667 mmHg 33%
    13:00 +15°C° 0 mm 2 mps 666 mmHg 31%
    14:00 +16°C° 0 mm 3 mps 666 mmHg 30%
    15:00 +16°C° 0 mm 3 mps 666 mmHg 28%
    16:00 +14°C° 0 mm 3 mps 666 mmHg 31%
    17:00 +13°C° 0 mm 2 mps 665 mmHg 34%
    18:00 +12°C° 0 mm 2 mps 665 mmHg 38%
    19:00 +12°C° 0 mm 2 mps 665 mmHg 39%
    20:00 +10°C° 0 mm 2 mps 665 mmHg 40%
    21:00 +10°C° 0 mm 2 mps 665 mmHg 41%
    22:00 +10°C° 0 mm 2 mps 665 mmHg 43%
    23:00 +10°C° 0 mm 2 mps 665 mmHg 45%

    29 November, Wednesday

    Time Temperature Precipitation Wind Pressure Humidity
    00:00 +9°C° 0 mm 3 mps 664 mmHg 47%
    01:00 +9°C° 0 mm 2 mps 664 mmHg 45%
    02:00 +9°C° 0 mm 2 mps 664 mmHg 43%
    03:00 +8°C° 0 mm 2 mps 664 mmHg 42%
    04:00 +8°C° 0 mm 2 mps 663 mmHg 39%
    05:00 +8°C° 0 mm 2 mps 663 mmHg 37%
    06:00 +8°C° 0 mm 2 mps 663 mmHg 35%
    07:00 +10°C° 0 mm 3 mps 664 mmHg 33%
    08:00 +11°C° 0 mm 3 mps 664 mmHg 31%
    09:00 +13°C° 0 mm 3 mps 665 mmHg 28%
    10:00 +15°C° 0 mm 4 mps 665 mmHg 26%
    11:00 +16°C° 0 mm 5 mps 665 mmHg 24%
    12:00 +19°C° 0 mm 6 mps 665 mmHg 22%
    13:00 +19°C° 0 mm 6 mps 664 mmHg 22%
    14:00 +19°C° 0 mm 6 mps 664 mmHg 22%
    15:00 +19°C° 0 mm 6 mps 664 mmHg 22%
    16:00 +17°C° 0 mm 5 mps 664 mmHg 25%
    17:00 +15°C° 0 mm 4 mps 663 mmHg 28%
    18:00 +14°C° 0 mm 2 mps 663 mmHg 31%
    19:00 +12°C° 0 mm 3 mps 663 mmHg 31%
    20:00 +12°C° 0 mm 3 mps 663 mmHg 31%
    21:00 +12°C° 0 mm 3 mps 663 mmHg 31%
    22:00 +11°C° 0 mm 3 mps 663 mmHg 30%
    23:00 +11°C° 0 mm 3 mps 663 mmHg 30%
    Show more